GFSGBSN_925_spd_228.txt.gz
Wind_Speed
11 10 9 10 11 12 12 13 13 14 13 14 15 16 17 19 20 20 21 22 21 20 20 19 18 17 11 6 10 4 9 12 11 10 5 3 13 13 17 12 12 17 16 13 14 10 11
9 9 10 10 11 12 13 13 14 14 14 14 15 15 16 18 20 21 22 23 23 21 20 19 17 13 8 10 3 6 11 14 9 8 6 5 5 6 9 13 14 2 14 17 14 14 13
7 8 9 9 10 11 11 11 12 13 14 15 16 17 18 20 22 23 24 25 25 23 20 18 14 10 12 19 10 17 17 12 10 9 8 6 5 10 5 8 16 12 14 15 17 16 14
5 5 7 8 9 11 11 11 11 12 14 15 16 18 20 21 22 25 27 27 26 26 19 14 9 8 9 9 16 22 18 19 16 15 15 12 7 7 8 3 7 13 15 18 20 20 12
6 6 7 8 9 9 9 10 11 13 14 15 16 18 19 20 23 27 28 26 20 13 8 4 3 4 10 10 10 12 10 11 10 14 13 7 7 10 9 13 13 15 18 23 20 11 17
4 5 6 7 8 9 9 10 11 13 15 16 16 17 18 21 24 25 27 17 8 9 10 1 1 6 4 10 16 22 16 12 9 10 11 15 9 12 14 15 22 20 22 21 18 15 16
4 5 5 6 7 8 9 10 11 13 14 14 15 16 18 20 22 17 23 7 7 2 15 6 18 19 23 18 20 10 11 11 11 15 19 20 15 21 29 26 24 24 17 21 18 18 9
3 3 4 5 6 8 9 10 13 13 13 14 13 17 18 20 19 15 13 7 8 6 10 20 18 19 26 24 16 19 6 10 15 21 22 17 26 30 22 22 24 23 22 19 10 8 9
3 3 4 5 5 7 7 10 13 13 12 15 14 15 18 23 8 12 8 10 9 10 6 8 7 9 9 6 12 21 10 11 17 18 23 28 25 24 25 22 22 22 25 21 17 11 12
3 2 3 4 4 6 6 9 12 12 12 12 13 14 17 21 3 14 3 10 9 8 4 3 4 2 4 4 7 19 25 16 11 16 16 18 27 24 28 24 22 23 22 19 19 17 17
3 4 4 4 4 6 6 8 10 12 12 11 14 13 14 14 9 7 6 12 13 3 4 6 4 5 8 6 15 5 9 18 22 10 9 15 15 23 27 24 24 24 18 17 16 16 16
3 5 6 4 6 7 7 7 10 12 12 11 14 13 16 7 9 9 10 12 4 3 2 5 4 12 14 13 10 9 2 12 12 21 19 17 5 5 17 22 21 15 17 17 14 13 17
3 4 4 7 6 5 5 8 10 12 11 12 14 16 14 7 4 5 7 4 2 2 4 4 10 19 17 16 9 8 9 9 11 14 19 25 22 16 8 8 20 20 16 13 14 12 21
4 5 7 6 8 7 8 7 10 12 11 12 16 15 4 2 5 5 3 2 1 1 7 10 11 18 7 16 10 13 4 8 9 12 10 16 17 24 18 22 15 27 25 14 19 17 22
4 4 6 6 6 6 8 8 10 10 10 15 15 5 3 8 7 3 3 1 1 4 6 11 17 10 6 11 13 11 6 11 6 10 8 7 11 9 10 20 22 19 21 28 27 23 14
5 5 5 6 5 7 6 9 7 9 12 15 10 1 9 6 4 5 1 1 2 3 11 9 7 5 11 15 17 15 10 8 2 12 7 9 15 15 9 10 19 23 15 18 16 25 28
6 5 5 5 6 6 5 4 9 11 12 10 2 2 7 6 5 1 0 3 6 6 8 5 9 12 16 19 14 14 5 7 3 2 15 10 12 9 12 14 16 14 18 18 16 19 20
5 5 4 5 6 6 2 5 10 10 8 6 1 2 2 4 1 1 2 3 7 8 6 8 8 10 11 13 12 9 10 9 10 4 1 9 6 14 21 15 13 15 8 19 16 22 17
7 6 5 6 5 6 5 5 9 5 5 3 2 1 1 3 1 1 3 8 7 7 8 3 6 8 12 13 7 6 8 6 11 7 2 3 2 7 10 14 15 17 17 9 16 19 25
8 7 6 6 5 6 4 5 6 5 1 2 2 2 2 3 1 3 4 6 3 4 11 5 6 10 11 9 11 9 11 8 15 15 11 7 7 9 9 14 12 11 15 18 10 4 11
9 9 8 7 6 6 5 5 5 2 0 1 1 1 1 2 3 2 4 5 10 6 4 6 4 2 7 6 16 13 7 16 12 11 11 7 8 12 16 18 17 16 15 18 18 14 9
11 10 8 7 7 6 6 4 3 3 3 2 2 2 2 3 5 4 5 4 8 4 3 6 9 12 12 14 14 20 20 17 12 9 11 10 9 7 8 15 16 18 15 16 19 20 21
13 12 11 10 8 7 6 6 4 4 5 2 2 2 1 3 3 3 4 5 4 8 7 7 7 15 17 19 17 14 17 18 18 18 15 8 10 11 18 14 13 11 21 23 23 23 20
15 13 12 11 10 10 9 9 5 5 8 5 3 2 1 4 6 6 7 10 14 14 15 19 17 16 9 16 19 20 21 22 22 24 22 21 18 10 12 15 15 16 17 19 22 23 22
15 14 14 13 11 11 10 11 9 8 8 9 7 5 2 5 7 12 14 12 13 13 14 16 18 10 9 10 8 9 8 8 13 23 24 23 18 9 9 14 17 21 21 17 17 21 17
15 15 15 14 14 12 11 11 13 14 8 12 11 10 5 4 5 11 8 7 10 12 13 9 7 14 9 4 6 6 6 10 5 4 3 12 15 11 11 11 13 17 21 12 14 18 25
16 15 15 15 14 13 13 12 13 12 11 9 6 17 6 5 10 13 7 7 5 6 6 13 6 8 4 4 7 8 12 15 11 14 10 4 7 15 16 14 12 19 21 17 11 16 17
17 16 16 15 15 14 14 12 13 13 11 15 10 14 12 4 13 21 19 15 12 9 9 8 8 3 3 4 4 2 4 5 7 9 9 7 5 8 10 11 14 10 11 10 14 21 21
19 18 17 15 17 14 15 15 13 14 14 12 11 15 17 9 9 15 19 22 24 27 14 9 8 7 3 4 4 4 8 8 12 8 7 6 9 5 6 9 19 20 13 16 18 19 19

GFSGBSN_925_spd_231.txt.gz
Wind_Speed
8 9 9 9 9 10 10 11 11 12 12 13 14 15 16 18 19 21 22 22 21 20 19 18 18 17 14 4 10 1 9 11 15 10 9 10 15 18 23 18 21 23 21 20 21 18 13
7 7 7 8 9 9 10 10 11 12 13 13 14 15 16 17 19 20 22 23 22 21 19 17 15 11 10 11 4 7 10 15 14 12 14 10 10 14 23 22 22 20 20 24 23 18 19
4 5 6 8 8 9 9 9 10 11 13 13 14 15 17 17 19 22 24 23 22 23 19 15 11 9 11 16 16 20 19 17 15 14 13 15 11 11 6 17 21 19 23 18 22 22 20
5 6 6 7 8 8 9 9 10 12 13 14 15 16 17 18 21 23 23 25 22 12 10 7 4 5 7 8 14 14 15 18 19 20 21 17 16 14 17 15 14 18 23 20 25 23 23
3 4 5 7 7 8 8 9 10 11 13 14 15 16 19 22 23 25 25 23 9 7 8 2 4 5 5 6 7 13 16 17 16 18 19 20 15 17 13 15 17 19 20 28 28 25 25
3 4 5 6 6 7 8 8 9 11 13 14 15 18 20 21 23 23 23 17 4 5 12 3 4 7 7 14 22 19 18 14 16 17 16 18 12 15 17 16 21 23 28 27 28 23 23
2 4 3 3 5 5 7 8 11 12 13 14 14 17 18 21 19 20 22 11 2 6 9 6 11 11 14 22 23 21 17 15 15 15 20 23 20 22 29 27 25 26 26 27 21 25 23
1 2 2 3 3 5 6 8 11 11 11 14 15 15 18 20 10 18 14 8 7 4 8 9 7 8 10 14 13 14 14 10 16 20 21 23 27 29 27 27 27 29 28 28 25 16 20
3 3 2 3 3 5 5 8 10 12 12 12 13 15 17 19 5 10 9 11 7 7 6 2 3 4 8 11 11 15 12 17 19 21 22 26 29 27 31 29 27 28 28 26 26 17 17
3 2 3 3 3 4 6 7 10 11 11 11 12 13 15 17 6 11 5 10 9 7 4 5 4 3 8 12 8 23 7 18 18 20 25 21 25 31 30 33 28 27 24 23 25 22 19
3 2 3 3 3 5 7 7 9 11 11 11 12 13 16 10 9 8 9 11 10 2 2 5 4 6 11 11 15 7 4 11 20 21 14 22 23 25 32 28 30 28 20 20 22 23 20
4 1 2 1 4 5 6 6 9 10 10 11 12 14 15 5 6 8 9 9 4 3 3 7 4 12 17 13 17 17 22 6 17 20 23 23 25 24 21 27 28 22 23 21 18 17 19
5 2 2 3 3 3 5 7 8 10 9 10 13 16 8 5 7 10 8 6 1 2 6 4 10 14 22 12 11 7 18 17 9 14 19 22 24 21 12 16 18 24 17 14 18 16 19
2 4 4 5 5 3 3 3 8 9 8 10 12 8 4 2 8 7 5 1 1 1 6 12 12 17 18 10 11 16 8 17 18 15 15 19 23 25 16 19 18 23 24 18 21 19 21
5 4 3 3 3 3 4 3 7 5 8 12 8 2 2 7 9 4 6 0 1 5 10 11 16 9 9 10 14 18 12 6 13 15 15 16 19 17 26 27 21 23 21 27 27 26 19
7 6 6 6 6 6 3 3 4 7 9 11 6 2 9 8 2 6 2 1 2 4 9 8 7 6 13 17 18 16 12 6 7 14 13 14 18 16 14 12 18 25 21 19 17 25 29
9 7 6 5 4 4 4 2 5 6 8 6 4 2 6 4 5 3 0 3 5 3 7 7 10 16 16 17 14 16 8 6 6 2 12 13 10 18 16 17 17 15 20 20 19 17 20
10 8 7 5 5 4 5 5 5 6 6 3 2 1 2 4 0 2 1 4 4 8 8 10 8 11 11 13 13 16 18 13 11 8 5 2 6 12 21 20 15 22 16 12 16 24 19
12 10 9 7 6 4 5 5 2 2 4 3 2 0 1 2 1 2 5 9 9 12 7 4 8 13 10 13 9 12 15 15 16 14 8 6 2 8 12 17 17 15 20 15 13 18 22
12 11 10 8 7 6 5 5 2 2 1 2 2 2 1 1 1 4 4 6 3 2 11 10 10 12 11 13 14 9 17 9 16 16 8 5 12 14 14 15 7 14 19 21 17 10 13
14 12 12 10 9 8 7 6 3 2 3 3 1 2 1 2 4 7 3 5 9 6 4 8 5 8 9 8 15 17 12 19 20 16 13 6 11 14 19 21 18 17 19 19 21 21 11
15 13 13 11 10 8 7 7 5 4 4 6 4 3 3 5 5 7 3 5 8 7 2 7 12 13 13 13 16 22 20 18 13 14 13 13 10 14 15 18 19 19 19 19 20 21 23
17 15 14 14 11 9 7 8 7 6 8 1 1 2 2 2 5 5 7 7 6 6 5 6 8 12 16 17 16 18 19 19 19 20 19 19 16 16 21 19 17 11 21 21 21 22 22
19 17 15 15 15 14 10 9 9 7 11 5 5 3 2 3 6 7 8 9 12 12 14 15 14 15 14 17 17 18 20 23 24 25 21 20 19 14 14 16 20 17 19 22 23 22 22
19 19 17 16 15 13 13 12 12 10 11 8 3 4 1 4 7 11 12 11 12 12 13 14 12 9 8 14 12 10 9 11 17 21 19 21 18 12 12 15 22 25 22 20 22 22 19
20 19 19 18 16 15 16 14 13 14 12 10 9 7 4 3 4 10 10 9 9 11 11 8 1 8 8 7 6 6 5 14 6 4 7 11 18 13 12 16 16 15 16 17 12 11 11
21 20 19 20 18 17 16 15 15 16 16 13 6 11 5 4 9 11 8 7 5 6 7 12 9 6 2 4 5 7 10 14 8 11 15 8 7 14 15 14 12 16 16 19 16 8 19
23 21 21 19 20 18 17 17 16 16 14 16 10 12 10 4 12 19 18 13 10 8 9 8 8 2 4 4 4 5 4 3 7 11 10 13 10 7 8 9 16 14 12 5 10 19 17
24 23 21 21 20 19 19 18 16 17 17 14 15 15 14 10 8 19 20 20 22 20 12 8 8 6 2 3 4 4 6 8 15 15 17 12 8 7 8 9 20 15 5 12 18 17 14

GFSGBSN_925_spd_234.txt.gz
Wind_Speed
7 6 6 7 8 8 9 9 10 11 11 12 13 14 15 16 17 18 20 20 20 20 18 18 18 16 12 3 4 6 13 12 13 13 14 13 13 14 20 16 19 23 22 22 21 23 19
4 4 5 6 7 8 9 9 10 12 13 14 15 16 17 18 19 20 21 21 22 22 20 17 13 10 7 5 6 11 16 16 15 14 13 16 13 15 15 20 22 23 23 23 22 21 19
1 3 4 6 8 8 8 9 10 12 13 14 15 16 17 18 20 21 21 21 22 17 14 12 8 5 7 11 17 16 15 16 16 16 15 14 16 16 12 17 19 24 24 24 21 19 23
2 3 4 6 7 8 7 8 10 11 13 14 14 16 18 19 22 23 23 19 16 8 9 7 3 4 6 6 6 15 17 19 16 15 19 19 18 15 14 15 21 20 21 22 24 22 19
0 2 3 5 6 7 8 9 10 12 13 13 14 16 19 21 21 22 22 19 10 3 5 3 3 5 2 6 16 22 19 21 18 19 19 19 18 18 15 15 15 17 19 25 27 25 22
1 1 3 4 6 6 7 8 11 12 13 14 16 17 20 22 18 21 26 19 7 5 8 7 6 6 3 13 21 22 17 18 17 15 15 16 11 18 17 16 18 22 24 26 26 22 24
2 2 2 3 4 6 6 8 10 12 12 15 17 17 20 21 17 19 28 9 3 4 10 6 7 6 10 15 15 15 18 14 15 15 17 17 17 20 25 24 27 22 23 28 26 24 24
3 4 3 3 3 5 5 8 11 13 14 15 16 19 20 19 12 18 17 9 9 3 6 4 4 5 7 9 13 13 17 11 16 18 18 19 22 26 25 27 28 28 28 27 24 25 21
6 5 4 4 4 4 5 7 10 13 14 14 15 18 19 17 11 11 10 12 8 8 5 0 1 2 7 9 15 12 16 16 17 22 21 22 24 25 28 27 30 28 28 23 24 23 26
8 6 6 5 4 4 6 7 9 12 14 13 14 16 18 18 7 12 6 11 8 5 4 4 0 4 9 10 7 23 14 10 14 21 22 23 24 26 27 31 28 27 27 26 25 18 17
9 6 6 6 5 6 7 7 8 11 13 11 13 15 16 8 9 10 12 11 8 4 2 6 3 4 12 17 7 14 15 14 19 19 18 23 23 26 27 30 28 28 25 26 26 21 18
7 5 5 3 5 6 5 6 9 10 12 10 12 15 13 6 6 11 13 11 6 2 4 6 4 12 13 18 8 5 11 6 12 22 19 24 27 24 18 28 27 28 26 28 25 15 16
8 7 6 5 5 6 7 8 8 10 10 9 13 8 9 6 8 15 13 8 1 4 7 6 12 14 15 17 13 13 19 14 6 7 15 20 23 25 21 24 26 22 20 14 19 15 16
7 8 8 7 8 5 3 6 7 9 8 10 7 7 4 5 10 13 12 1 5 3 6 13 12 17 12 11 13 17 18 13 7 11 16 17 15 18 16 16 20 19 21 16 20 16 18
10 8 7 7 5 6 5 4 6 6 9 11 8 2 2 9 9 8 5 4 3 5 9 11 15 9 9 14 18 18 18 7 11 14 13 15 17 29 22 17 18 15 20 20 22 19 15
11 10 9 9 8 8 7 6 4 7 9 10 8 4 7 8 7 9 2 2 1 4 7 8 8 5 16 18 17 15 15 9 11 11 13 13 17 16 22 30 15 26 19 14 11 22 23
14 12 10 9 7 7 7 6 6 6 7 6 6 2 5 7 6 1 3 3 4 4 7 6 10 13 14 16 15 16 16 4 13 13 7 12 8 17 18 16 13 13 15 19 16 11 14
18 15 12 10 8 7 6 8 6 6 5 5 4 2 4 6 2 2 0 5 4 5 6 8 8 11 11 12 14 16 18 11 12 15 12 6 6 11 22 24 21 16 14 11 7 19 15
16 16 13 12 10 7 7 8 6 4 4 9 2 1 2 3 1 1 5 6 6 9 8 3 6 10 11 13 10 10 18 17 14 14 11 10 5 11 15 10 18 7 18 15 9 15 18
18 17 15 13 11 9 7 7 6 3 2 3 2 0 2 3 2 2 4 5 3 1 8 6 8 11 11 13 10 10 19 13 19 16 10 7 11 13 13 17 2 11 27 20 18 4 6
18 17 17 14 12 11 9 8 7 4 4 2 2 3 1 2 3 5 3 5 7 6 4 6 4 7 11 9 15 16 15 23 20 18 13 6 9 14 19 21 20 17 16 21 18 18 14
20 19 18 17 15 13 11 11 9 6 6 4 4 3 3 4 5 7 4 3 7 7 4 6 11 14 13 13 14 20 21 17 12 15 12 11 11 15 20 20 22 20 19 19 20 22 21
22 20 19 17 15 14 12 12 12 10 9 5 1 3 2 4 4 6 7 7 6 6 5 7 8 11 14 16 16 17 17 19 20 21 20 18 13 13 20 18 21 17 14 16 19 21 20
23 23 21 20 19 16 14 13 14 13 15 5 6 5 3 3 7 8 8 9 10 10 12 13 12 13 12 14 17 18 21 23 23 21 17 19 17 12 13 16 13 10 15 18 18 21 19
24 24 22 21 19 19 17 15 15 16 15 9 5 5 2 3 7 9 11 11 10 10 11 13 11 7 9 11 9 10 8 9 10 20 20 18 16 7 6 10 19 23 21 21 17 15 16
26 25 24 22 20 19 18 18 16 17 15 10 8 5 3 1 5 10 7 7 8 8 8 6 2 8 4 6 3 3 4 13 5 10 5 9 15 9 8 6 8 8 13 16 12 14 13
27 26 24 23 22 20 19 19 18 16 17 12 6 10 5 3 7 9 6 6 4 5 5 7 5 2 3 2 4 5 8 13 6 10 12 8 6 11 11 9 8 9 16 14 9 8 20
26 25 25 23 23 22 20 19 18 17 16 16 12 10 10 3 9 14 13 10 8 7 7 5 7 3 4 3 3 4 3 5 8 12 13 15 10 9 9 8 8 10 13 6 12 15 19
28 26 25 24 23 23 21 20 20 18 17 14 12 10 12 7 6 19 16 16 15 15 9 5 7 7 2 4 2 3 4 6 14 12 13 11 12 12 8 8 20 16 8 13 15 12 13

GFSGBSN_925_spd_237.txt.gz
Wind_Speed
4 4 5 6 6 6 7 7 9 10 11 12 13 15 16 18 18 18 19 19 19 21 20 18 17 15 7 3 5 14 19 17 15 18 12 7 8 6 5 6 8 14 14 15 21 19 14
3 3 4 5 6 6 6 8 9 10 11 13 14 15 17 18 18 19 19 21 20 18 14 13 12 9 3 3 15 17 18 18 15 12 17 11 5 11 9 7 7 9 16 14 17 20 17
3 4 3 5 6 6 6 7 9 10 12 13 14 15 18 18 17 18 20 18 18 11 11 10 8 5 3 4 11 14 20 19 19 19 5 13 18 5 10 11 9 13 13 13 17 10 15
3 3 4 5 5 5 6 8 9 11 13 14 16 17 19 19 18 19 21 19 13 4 8 6 6 2 3 3 13 21 20 20 18 20 18 17 13 8 3 7 8 6 8 5 12 14 14
3 3 4 5 5 6 7 8 10 12 13 14 17 17 19 21 18 21 24 17 9 2 4 4 3 1 3 8 21 19 13 11 18 17 15 15 10 7 5 6 6 6 7 9 10 10 10
4 3 5 5 5 5 6 8 10 12 12 13 15 18 20 19 17 22 27 7 3 4 5 4 11 3 3 7 17 16 13 11 10 9 9 3 3 5 3 5 12 7 10 10 15 5 14
4 4 3 4 5 5 6 8 10 12 12 13 14 17 18 15 14 21 27 4 7 5 8 4 4 2 4 11 14 11 14 14 3 6 6 6 6 12 10 14 19 17 21 22 15 9 18
5 6 5 5 5 6 6 8 10 12 13 14 15 17 18 13 12 14 24 9 6 2 5 11 8 7 5 6 6 7 13 6 6 8 9 8 13 15 14 18 19 21 23 26 22 19 18
7 7 7 6 6 7 7 8 10 12 15 15 15 17 18 11 9 12 19 17 9 5 2 4 3 3 5 6 5 5 7 5 3 6 6 7 16 23 22 21 20 23 23 21 21 16 22
7 9 7 7 7 7 7 9 10 12 15 14 15 17 16 15 4 20 13 14 9 6 3 4 4 4 6 5 4 4 2 3 5 8 10 7 8 19 24 23 20 23 19 22 22 16 15
9 10 8 8 8 8 9 9 10 13 15 13 14 17 12 8 6 9 14 13 9 2 6 5 2 0 6 7 10 2 6 2 2 7 4 11 16 17 21 20 23 17 15 21 23 15 15
12 8 7 6 5 7 7 8 10 12 13 11 14 12 11 8 8 11 14 7 5 4 1 0 3 9 11 9 7 3 6 4 3 3 7 11 12 15 21 16 22 25 22 20 16 15 16
13 9 7 8 7 6 8 9 9 10 9 9 10 7 8 8 7 18 12 5 4 6 8 5 7 9 9 9 5 12 11 9 2 8 14 20 10 15 8 15 19 19 13 8 10 11 11
12 11 11 9 9 9 5 6 7 8 7 9 8 6 3 4 15 11 9 3 8 6 5 8 9 14 2 13 8 9 8 5 7 10 10 8 15 17 20 16 14 10 7 6 10 9 12
14 12 9 10 10 8 8 6 6 5 8 10 9 1 3 11 7 9 2 6 6 3 5 7 10 5 6 14 8 10 9 6 6 11 8 7 9 24 10 16 4 8 10 11 9 7 9
16 14 12 10 11 10 9 7 5 5 8 10 8 6 3 9 10 5 4 3 1 2 5 4 3 5 7 9 7 12 7 7 7 8 5 5 11 8 22 8 8 11 8 6 2 3 6
19 16 14 12 12 10 9 9 7 5 6 6 4 0 4 8 7 4 3 4 3 7 4 4 4 5 5 8 9 9 5 4 7 8 9 5 3 13 13 7 16 15 8 6 1 3 3
23 20 17 14 12 11 8 8 7 5 5 5 4 2 6 7 4 2 2 4 3 2 4 3 3 4 4 8 5 5 4 9 2 6 6 4 4 5 18 21 12 9 10 12 4 7 4
25 22 20 16 14 12 9 9 8 3 3 4 0 1 1 3 3 0 4 4 2 2 3 3 3 3 5 5 4 5 7 12 8 13 10 6 3 7 13 5 9 8 9 8 5 3 4
23 21 20 18 16 14 11 9 10 6 3 2 3 1 3 4 2 1 1 3 2 5 2 1 3 5 4 5 6 6 11 7 13 14 16 7 5 6 6 11 14 14 14 11 6 3 6
24 23 21 19 17 15 13 11 12 8 6 1 2 3 4 2 3 2 2 1 3 3 5 1 1 4 6 4 8 9 9 17 11 10 6 4 3 6 13 15 16 18 20 16 13 10 7
24 24 22 21 19 17 15 13 13 9 8 2 4 2 2 1 7 7 5 3 3 5 1 2 4 6 6 4 6 14 12 7 6 3 6 8 4 13 14 13 13 18 18 19 17 15 13
26 24 23 22 21 19 17 15 16 12 10 4 4 1 3 3 2 4 5 5 7 1 2 1 5 4 5 9 5 5 7 10 11 13 12 7 3 2 5 6 13 8 9 14 12 12 9
26 25 23 23 21 20 18 16 18 16 17 3 3 2 3 3 3 5 7 10 9 5 5 3 4 4 3 7 6 7 13 17 16 17 12 7 2 2 5 5 3 8 9 13 13 6 10
27 27 24 24 23 22 19 18 18 19 15 14 5 3 2 2 3 7 7 6 5 3 4 6 4 3 4 6 4 6 5 4 6 11 15 16 7 3 2 3 9 10 8 8 4 4 9
28 26 25 25 24 22 22 19 16 18 15 14 12 5 2 3 5 5 3 3 1 1 4 2 4 2 3 1 3 1 3 3 4 6 3 14 13 6 2 4 5 3 19 21 10 3 14
28 27 26 25 25 23 21 20 21 18 16 13 5 9 2 2 4 2 2 3 2 2 2 2 2 3 4 2 1 3 4 4 3 3 4 4 2 11 9 5 4 11 14 17 4 4 14
28 27 26 25 25 24 22 20 20 19 15 15 9 9 5 2 5 5 5 1 2 1 4 3 4 2 1 2 2 4 2 3 4 4 4 2 2 2 2 1 6 9 12 3 7 13 5
27 26 26 25 25 24 23 22 20 19 17 14 6 10 11 3 4 12 10 12 9 5 2 3 5 1 4 2 1 1 2 2 2 4 2 4 4 1 2 4 17 11 11 7 7 3 10